Time,TemperatureF,DewpointF,PressureIn,WindDirection,WindDirectionDegrees,WindSpeedMPH,WindSpeedGustMPH,Humidity,HourlyPrecipIn,Conditions,Clouds,dailyrainin,SoftwareType,DateUTC
2013-01-13 00:09:00,74.5,66.4,30.11,East,97,4.0,4.0,76,0.00,,,0.00,Wunderground v.1.15,2013-01-13 05:09:00,
2013-01-13 00:19:00,74.6,67.3,30.11,East,96,5.0,8.0,78,0.00,,,0.00,Wunderground v.1.15,2013-01-13 05:19:00,
2013-01-13 00:29:00,74.7,67.4,30.11,ESE,104,7.0,7.0,78,0.00,,,0.00,Wunderground v.1.15,2013-01-13 05:29:00,
2013-01-13 00:39:00,74.6,67.7,30.11,ESE,108,5.0,6.0,79,0.00,,,0.00,Wunderground v.1.15,2013-01-13 05:39:00,
2013-01-13 00:49:00,74.7,68.1,30.11,East,96,6.0,6.0,80,0.00,,,0.00,Wunderground v.1.15,2013-01-13 05:49:00,
2013-01-13 00:59:00,74.6,68.0,30.11,ESE,103,6.0,11.0,80,0.00,,,0.00,Wunderground v.1.15,2013-01-13 05:59:00,
2013-01-13 01:09:00,74.8,68.2,30.11,ESE,102,6.0,6.0,80,0.00,,,0.00,Wunderground v.1.15,2013-01-13 06:09:00,
2013-01-13 01:19:00,74.7,67.4,30.10,NE,48,7.0,7.0,78,0.00,,,0.00,Wunderground v.1.15,2013-01-13 06:19:00,
2013-01-13 01:29:00,74.9,67.9,30.10,ESE,116,6.0,6.0,79,0.00,,,0.00,Wunderground v.1.15,2013-01-13 06:29:00,
2013-01-13 01:39:00,74.9,67.9,30.10,East,88,5.0,5.0,79,0.00,,,0.00,Wunderground v.1.15,2013-01-13 06:39:00,
2013-01-13 01:49:00,74.8,68.2,30.10,ESE,117,6.0,7.0,80,0.00,,,0.00,Wunderground v.1.15,2013-01-13 06:49:00,
2013-01-13 01:59:00,74.6,68.0,30.10,East,87,7.0,9.0,80,0.00,,,0.00,Wunderground v.1.15,2013-01-13 06:59:00,
2013-01-13 02:09:00,74.3,67.7,30.10,SSE,156,6.0,6.0,80,0.00,,,0.00,Wunderground v.1.15,2013-01-13 07:09:00,
2013-01-13 02:19:00,74.0,67.4,30.10,SE,136,7.0,7.0,80,0.00,,,0.00,Wunderground v.1.15,2013-01-13 07:19:00,
2013-01-13 02:29:00,74.1,67.5,30.11,SSE,152,6.0,6.0,80,0.00,,,0.00,Wunderground v.1.15,2013-01-13 07:29:00,
2013-01-13 02:39:00,74.2,68.0,30.10,ENE,74,5.0,5.0,81,0.00,,,0.00,Wunderground v.1.15,2013-01-13 07:39:00,
2013-01-13 02:49:00,74.2,68.0,30.10,ESE,110,5.0,5.0,81,0.00,,,0.00,Wunderground v.1.15,2013-01-13 07:49:00,
2013-01-13 02:59:00,74.2,67.3,30.10,ESE,113,5.0,5.0,79,0.00,,,0.00,Wunderground v.1.15,2013-01-13 07:59:00,
2013-01-13 03:09:00,74.3,67.0,30.09,ESE,112,6.0,6.0,78,0.00,,,0.00,Wunderground v.1.15,2013-01-13 08:09:00,
2013-01-13 03:19:00,74.4,66.7,30.09,ESE,110,6.0,9.0,77,0.00,,,0.00,Wunderground v.1.15,2013-01-13 08:19:00,
2013-01-13 03:29:00,74.2,66.1,30.09,ESE,122,8.0,8.0,76,0.00,,,0.00,Wunderground v.1.15,2013-01-13 08:29:00,
2013-01-13 03:39:00,74.4,66.3,30.09,ESE,106,7.0,7.0,76,0.00,,,0.00,Wunderground v.1.15,2013-01-13 08:39:00,
2013-01-13 03:49:00,74.3,66.2,30.09,ESE,105,7.0,7.0,76,0.00,,,0.00,Wunderground v.1.15,2013-01-13 08:49:00,
2013-01-13 03:59:00,74.3,66.6,30.09,ESE,117,7.0,8.0,77,0.00,,,0.00,Wunderground v.1.15,2013-01-13 08:59:00,
2013-01-13 04:09:00,74.3,66.6,30.09,SE,124,7.0,7.0,77,0.00,,,0.00,Wunderground v.1.15,2013-01-13 09:09:00,
2013-01-13 04:19:00,74.1,65.7,30.09,SE,127,8.0,8.0,75,0.00,,,0.00,Wunderground v.1.15,2013-01-13 09:19:00,
2013-01-13 04:29:00,74.0,66.3,30.09,East,83,7.0,7.0,77,0.00,,,0.00,Wunderground v.1.15,2013-01-13 09:29:00,
2013-01-13 04:39:00,73.8,65.8,30.09,ESE,114,7.0,10.0,76,0.00,,,0.00,Wunderground v.1.15,2013-01-13 09:39:00,
2013-01-13 04:49:00,73.8,65.8,30.10,East,91,7.0,8.0,76,0.00,,,0.00,Wunderground v.1.15,2013-01-13 09:49:00,
2013-01-13 04:59:00,73.7,65.7,30.09,ENE,78,7.0,9.0,76,0.00,,,0.00,Wunderground v.1.15,2013-01-13 09:59:00,
2013-01-13 05:09:00,73.7,65.7,30.10,ENE,77,6.0,6.0,76,0.00,,,0.00,Wunderground v.1.15,2013-01-13 10:09:00,
2013-01-13 05:19:00,73.6,65.6,30.10,East,89,6.0,6.0,76,0.00,,,0.00,Wunderground v.1.15,2013-01-13 10:19:00,
2013-01-13 05:29:00,73.5,65.1,30.10,SE,127,5.0,8.0,75,0.00,,,0.00,Wunderground v.1.15,2013-01-13 10:29:00,
2013-01-13 05:39:00,73.6,65.6,30.10,East,101,6.0,6.0,76,0.00,,,0.00,Wunderground v.1.15,2013-01-13 10:39:00,
2013-01-13 05:49:00,73.6,65.6,30.10,ESE,121,5.0,6.0,76,0.00,,,0.00,Wunderground v.1.15,2013-01-13 10:49:00,
2013-01-13 05:59:00,73.6,65.6,30.10,ESE,115,6.0,8.0,76,0.00,,,0.00,Wunderground v.1.15,2013-01-13 10:59:00,
2013-01-13 06:09:00,73.6,65.9,30.10,ESE,104,6.0,9.0,77,0.00,,,0.00,Wunderground v.1.15,2013-01-13 11:09:00,
2013-01-13 06:19:00,73.5,65.8,30.10,ENE,76,6.0,6.0,77,0.00,,,0.00,Wunderground v.1.15,2013-01-13 11:19:00,
2013-01-13 06:29:00,73.5,65.8,30.10,ESE,115,5.0,5.0,77,0.00,,,0.00,Wunderground v.1.15,2013-01-13 11:29:00,
2013-01-13 06:39:00,73.6,65.9,30.10,SE,136,6.0,6.0,77,0.00,,,0.00,Wunderground v.1.15,2013-01-13 11:39:00,
2013-01-13 06:49:00,73.6,65.9,30.10,ESE,102,5.0,7.0,77,0.00,,,0.00,Wunderground v.1.15,2013-01-13 11:49:00,
2013-01-13 06:59:00,73.6,65.9,30.10,East,100,6.0,6.0,77,0.00,,,0.00,Wunderground v.1.15,2013-01-13 11:59:00,
2013-01-13 07:09:00,73.7,66.0,30.10,East,79,7.0,7.0,77,0.00,,,0.00,Wunderground v.1.15,2013-01-13 12:09:00,
2013-01-13 07:19:00,73.6,65.9,30.10,SSE,149,5.0,6.0,77,0.00,,,0.00,Wunderground v.1.15,2013-01-13 12:19:00,
2013-01-13 07:29:00,73.7,66.0,30.10,SE,136,6.0,6.0,77,0.00,,,0.00,Wunderground v.1.15,2013-01-13 12:29:00,
2013-01-13 07:39:00,73.8,66.5,30.10,East,99,5.0,10.0,78,0.00,,,0.00,Wunderground v.1.15,2013-01-13 12:39:00,
2013-01-13 07:49:00,73.9,67.0,30.10,ESE,122,6.0,6.0,79,0.00,,,0.00,Wunderground v.1.15,2013-01-13 12:49:00,
2013-01-13 07:59:00,74.2,67.3,30.10,SE,138,6.0,9.0,79,0.00,,,0.00,Wunderground v.1.15,2013-01-13 12:59:00,
2013-01-13 08:09:00,74.5,67.6,30.10,South,174,7.0,7.0,79,0.00,,,0.00,Wunderground v.1.15,2013-01-13 13:09:00,
2013-01-13 08:19:00,74.5,67.2,30.11,ESE,109,6.0,6.0,78,0.00,,,0.00,Wunderground v.1.15,2013-01-13 13:19:00,
2013-01-13 08:29:00,74.5,67.6,30.10,East,89,6.0,6.0,79,0.00,,,0.00,Wunderground v.1.15,2013-01-13 13:29:00,
2013-01-13 08:39:00,75.0,67.7,30.10,SE,127,6.0,6.0,78,0.00,,,0.00,Wunderground v.1.15,2013-01-13 13:39:00,
2013-01-13 08:49:00,75.3,68.0,30.10,SE,132,7.0,9.0,78,0.00,,,0.00,Wunderground v.1.15,2013-01-13 13:49:00,
2013-01-13 08:59:00,75.9,67.8,30.11,ESE,121,6.0,6.0,76,0.00,,,0.00,Wunderground v.1.15,2013-01-13 13:59:00,
2013-01-13 09:09:00,76.1,67.6,30.11,SE,129,7.0,7.0,75,0.00,,,0.00,Wunderground v.1.15,2013-01-13 14:09:00,
2013-01-13 09:19:00,76.2,68.1,30.11,ENE,77,7.0,7.0,76,0.00,,,0.00,Wunderground v.1.15,2013-01-13 14:19:00,
2013-01-13 09:29:00,75.7,68.0,30.12,SE,134,7.0,11.0,77,0.00,,,0.00,Wunderground v.1.15,2013-01-13 14:29:00,
2013-01-13 09:39:00,75.8,67.7,30.12,SE,146,7.0,8.0,76,0.00,,,0.00,Wunderground v.1.15,2013-01-13 14:39:00,
2013-01-13 09:49:00,76.6,68.5,30.13,ENE,74,8.0,11.0,76,0.00,,,0.00,Wunderground v.1.15,2013-01-13 14:49:00,
2013-01-13 09:59:00,77.0,68.1,30.12,ESE,117,7.0,7.0,74,0.00,,,0.00,Wunderground v.1.15,2013-01-13 14:59:00,
2013-01-13 10:09:00,77.4,68.1,30.12,South,179,6.0,6.0,73,0.00,,,0.00,Wunderground v.1.15,2013-01-13 15:09:00,
2013-01-13 10:19:00,77.4,68.5,30.12,SSE,158,6.0,11.0,74,0.00,,,0.00,Wunderground v.1.15,2013-01-13 15:19:00,
2013-01-13 10:29:00,77.6,68.3,30.12,East,97,6.0,7.0,73,0.00,,,0.00,Wunderground v.1.15,2013-01-13 15:29:00,
2013-01-13 10:39:00,77.5,68.2,30.12,SE,134,6.0,8.0,73,0.00,,,0.00,Wunderground v.1.15,2013-01-13 15:39:00,
2013-01-13 10:49:00,77.6,67.4,30.12,East,90,6.0,8.0,71,0.00,,,0.00,Wunderground v.1.15,2013-01-13 15:49:00,
2013-01-13 10:59:00,77.6,67.4,30.12,SE,127,6.0,6.0,71,0.00,,,0.00,Wunderground v.1.15,2013-01-13 15:59:00,
2013-01-13 11:09:00,77.6,67.9,30.12,SSE,168,7.0,7.0,72,0.00,,,0.00,Wunderground v.1.15,2013-01-13 16:09:00,
2013-01-13 11:19:00,77.7,68.0,30.12,ESE,103,7.0,7.0,72,0.00,,,0.00,Wunderground v.1.15,2013-01-13 16:19:00,
2013-01-13 11:29:00,77.9,67.7,30.12,SE,143,5.0,5.0,71,0.00,,,0.00,Wunderground v.1.15,2013-01-13 16:29:00,
2013-01-13 11:39:00,78.2,67.6,30.13,SE,141,6.0,6.0,70,0.00,,,0.00,Wunderground v.1.15,2013-01-13 16:39:00,
2013-01-13 11:49:00,78.1,67.9,30.13,SSE,166,5.0,5.0,71,0.00,,,0.00,Wunderground v.1.15,2013-01-13 16:49:00,
2013-01-13 11:59:00,78.4,68.2,30.13,SSE,150,6.0,6.0,71,0.00,,,0.00,Wunderground v.1.15,2013-01-13 16:59:00,
2013-01-13 12:09:00,78.6,67.6,30.13,SSW,195,5.0,5.0,69,0.00,,,0.00,Wunderground v.1.15,2013-01-13 17:09:00,
2013-01-13 12:19:00,79.1,67.2,30.13,South,174,4.0,7.0,67,0.00,,,0.00,Wunderground v.1.15,2013-01-13 17:19:00,
2013-01-13 12:29:00,78.4,67.8,30.13,South,169,5.0,5.0,70,0.00,,,0.00,Wunderground v.1.15,2013-01-13 17:29:00,
2013-01-13 12:39:00,78.3,67.3,30.12,SE,131,5.0,5.0,69,0.00,,,0.00,Wunderground v.1.15,2013-01-13 17:39:00,
2013-01-13 12:49:00,78.7,67.2,30.12,SE,143,6.0,6.0,68,0.00,,,0.00,Wunderground v.1.15,2013-01-13 17:49:00,
2013-01-13 12:59:00,78.4,67.4,30.12,SE,127,5.0,5.0,69,0.00,,,0.00,Wunderground v.1.15,2013-01-13 17:59:00,
2013-01-13 13:09:00,78.3,66.4,30.12,East,79,5.0,9.0,67,0.00,,,0.00,Wunderground v.1.15,2013-01-13 18:09:00,
2013-01-13 13:19:00,78.4,67.0,30.12,North,1,5.0,6.0,68,0.00,,,0.00,Wunderground v.1.15,2013-01-13 18:19:00,
2013-01-13 13:29:00,78.9,67.4,30.12,East,99,4.0,4.0,68,0.00,,,0.00,Wunderground v.1.15,2013-01-13 18:29:00,
2013-01-13 13:39:00,78.5,67.1,30.12,SE,139,5.0,5.0,68,0.00,,,0.00,Wunderground v.1.15,2013-01-13 18:39:00,
2013-01-13 13:49:00,79.2,67.3,30.12,SE,135,4.0,4.0,67,0.00,,,0.00,Wunderground v.1.15,2013-01-13 18:49:00,
2013-01-13 13:59:00,78.2,67.2,30.11,SE,136,4.0,4.0,69,0.00,,,0.00,Wunderground v.1.15,2013-01-13 18:59:00,
2013-01-13 14:09:00,78.6,67.6,30.11,NW,316,4.0,4.0,69,0.00,,,0.00,Wunderground v.1.15,2013-01-13 19:09:00,
2013-01-13 14:19:00,78.6,67.2,30.12,ESE,112,4.0,10.0,68,0.00,,,0.00,Wunderground v.1.15,2013-01-13 19:19:00,
2013-01-13 14:29:00,78.2,66.8,30.11,SSE,160,4.0,4.0,68,0.00,,,0.00,Wunderground v.1.15,2013-01-13 19:29:00,
2013-01-13 14:39:00,78.8,66.5,30.11,ESE,106,3.0,5.0,66,0.00,,,0.00,Wunderground v.1.15,2013-01-13 19:39:00,
2013-01-13 14:49:00,78.7,66.8,30.11,SSW,198,5.0,6.0,67,0.00,,,0.00,Wunderground v.1.15,2013-01-13 19:49:00,
2013-01-13 15:00:00,79.0,66.7,30.11,SE,139,4.0,7.0,66,0.00,,,0.00,Wunderground v.1.15,2013-01-13 20:00:00,
2013-01-13 15:09:00,78.4,65.7,30.11,SE,136,5.0,5.0,65,0.00,,,0.00,Wunderground v.1.15,2013-01-13 20:09:00,
2013-01-13 15:19:00,78.2,65.9,30.11,SE,124,4.0,4.0,66,0.00,,,0.00,Wunderground v.1.15,2013-01-13 20:19:00,
2013-01-13 15:29:00,77.6,65.3,30.11,East,96,5.0,6.0,66,0.00,,,0.00,Wunderground v.1.15,2013-01-13 20:29:00,
2013-01-13 15:39:00,77.6,66.2,30.12,East,100,4.0,5.0,68,0.00,,,0.00,Wunderground v.1.15,2013-01-13 20:39:00,
2013-01-13 15:49:00,77.5,66.1,30.12,East,81,5.0,5.0,68,0.00,,,0.00,Wunderground v.1.15,2013-01-13 20:49:00,
2013-01-13 15:59:00,77.3,65.9,30.12,ESE,108,5.0,5.0,68,0.00,,,0.00,Wunderground v.1.15,2013-01-13 20:59:00,
2013-01-13 16:09:00,77.2,66.2,30.13,East,99,5.0,6.0,69,0.00,,,0.00,Wunderground v.1.15,2013-01-13 21:09:00,
2013-01-13 16:19:00,77.5,66.5,30.13,East,96,4.0,4.0,69,0.00,,,0.00,Wunderground v.1.15,2013-01-13 21:19:00,
2013-01-13 16:29:00,76.5,66.4,30.13,ESE,113,4.0,4.0,71,0.00,,,0.00,Wunderground v.1.15,2013-01-13 21:29:00,
2013-01-13 16:39:00,75.9,66.6,30.14,East,94,4.0,4.0,73,0.00,,,0.00,Wunderground v.1.15,2013-01-13 21:39:00,
2013-01-13 16:49:00,75.6,66.7,30.14,SE,136,4.0,4.0,74,0.00,,,0.00,Wunderground v.1.15,2013-01-13 21:49:00,
2013-01-13 16:59:00,75.6,66.3,30.14,ESE,122,4.0,7.0,73,0.00,,,0.00,Wunderground v.1.15,2013-01-13 21:59:00,
2013-01-13 17:09:00,75.5,66.6,30.14,ESE,120,4.0,4.0,74,0.00,,,0.00,Wunderground v.1.15,2013-01-13 22:09:00,
2013-01-13 17:19:00,75.3,66.4,30.14,SE,127,4.0,4.0,74,0.00,,,0.00,Wunderground v.1.15,2013-01-13 22:19:00,
2013-01-13 17:29:00,75.0,66.1,30.14,ESE,105,4.0,4.0,74,0.00,,,0.00,Wunderground v.1.15,2013-01-13 22:29:00,
2013-01-13 17:39:00,74.9,65.7,30.13,South,187,5.0,5.0,73,0.00,,,0.00,Wunderground v.1.15,2013-01-13 22:39:00,
2013-01-13 17:49:00,74.9,66.1,30.14,East,85,4.0,7.0,74,0.00,,,0.00,Wunderground v.1.15,2013-01-13 22:49:00,
2013-01-13 17:59:00,74.8,66.0,30.14,ESE,106,5.0,5.0,74,0.00,,,0.00,Wunderground v.1.15,2013-01-13 22:59:00,
2013-01-13 18:09:00,74.6,65.8,30.14,ESE,107,3.0,5.0,74,0.00,,,0.00,Wunderground v.1.15,2013-01-13 23:09:00,
2013-01-13 18:19:00,74.6,65.4,30.14,SSE,167,5.0,6.0,73,0.00,,,0.00,Wunderground v.1.15,2013-01-13 23:19:00,
2013-01-13 18:30:00,74.6,65.8,30.14,ESE,116,5.0,5.0,74,0.00,,,0.00,Wunderground v.1.15,2013-01-13 23:30:00,
2013-01-13 18:39:00,74.6,65.8,30.14,ESE,104,5.0,5.0,74,0.00,,,0.00,Wunderground v.1.15,2013-01-13 23:39:00,
2013-01-13 18:49:00,74.6,65.8,30.14,East,91,5.0,12.0,74,0.00,,,0.00,Wunderground v.1.15,2013-01-13 23:49:00,
2013-01-13 18:59:00,74.6,65.4,30.14,ESE,108,6.0,6.0,73,0.00,,,0.00,Wunderground v.1.15,2013-01-13 23:59:00,
2013-01-13 19:09:00,74.7,65.9,30.14,East,99,5.0,7.0,74,0.00,,,0.00,Wunderground v.1.15,2013-01-14 00:09:00,
2013-01-13 19:19:00,74.7,65.9,30.14,East,93,5.0,5.0,74,0.00,,,0.00,Wunderground v.1.15,2013-01-14 00:19:00,
2013-01-13 19:29:00,74.8,66.0,30.14,SE,134,5.0,6.0,74,0.00,,,0.00,Wunderground v.1.15,2013-01-14 00:29:00,
2013-01-13 19:39:00,75.0,65.8,30.14,ESE,111,6.0,6.0,73,0.00,,,0.00,Wunderground v.1.15,2013-01-14 00:39:00,
2013-01-13 19:49:00,75.1,65.9,30.14,ESE,106,6.0,6.0,73,0.00,,,0.00,Wunderground v.1.15,2013-01-14 00:49:00,
2013-01-13 19:59:00,74.9,64.9,30.14,ESE,122,5.0,5.0,71,0.00,,,0.00,Wunderground v.1.15,2013-01-14 00:59:00,
2013-01-13 20:09:00,74.8,65.2,30.13,ESE,107,6.0,6.0,72,0.00,,,0.00,Wunderground v.1.15,2013-01-14 01:09:00,
2013-01-13 20:19:00,74.9,66.1,30.13,SE,130,6.0,6.0,74,0.00,,,0.00,Wunderground v.1.15,2013-01-14 01:19:00,
2013-01-13 20:29:00,74.9,65.7,30.13,SE,143,6.0,6.0,73,0.00,,,0.00,Wunderground v.1.15,2013-01-14 01:29:00,
2013-01-13 20:39:00,75.0,65.4,30.13,ESE,106,6.0,6.0,72,0.00,,,0.00,Wunderground v.1.15,2013-01-14 01:39:00,
2013-01-13 20:49:00,75.0,66.1,30.13,SE,134,7.0,7.0,74,0.00,,,0.00,Wunderground v.1.15,2013-01-14 01:49:00,
2013-01-13 20:59:00,74.9,66.1,30.12,SSE,149,7.0,7.0,74,0.00,,,0.00,Wunderground v.1.15,2013-01-14 01:59:00,
2013-01-13 21:09:00,74.7,65.9,30.12,SE,124,5.0,5.0,74,0.00,,,0.00,Wunderground v.1.15,2013-01-14 02:09:00,
2013-01-13 21:19:00,74.8,66.3,30.11,SE,127,7.0,7.0,75,0.00,,,0.00,Wunderground v.1.15,2013-01-14 02:19:00,
2013-01-13 21:29:00,74.8,66.3,30.12,SE,146,6.0,6.0,75,0.00,,,0.00,Wunderground v.1.15,2013-01-14 02:29:00,
2013-01-13 21:39:00,74.9,66.4,30.11,ESE,110,6.0,10.0,75,0.00,,,0.00,Wunderground v.1.15,2013-01-14 02:39:00,
2013-01-13 21:49:00,74.8,66.0,30.11,ENE,70,6.0,6.0,74,0.00,,,0.00,Wunderground v.1.15,2013-01-14 02:49:00,
2013-01-13 21:59:00,74.8,65.6,30.12,ESE,112,7.0,10.0,73,0.00,,,0.00,Wunderground v.1.15,2013-01-14 02:59:00,
2013-01-13 22:09:00,74.8,66.0,30.12,SE,130,8.0,8.0,74,0.00,,,0.00,Wunderground v.1.15,2013-01-14 03:09:00,
2013-01-13 22:19:00,74.6,65.0,30.12,ESE,121,8.0,12.0,72,0.00,,,0.00,Wunderground v.1.15,2013-01-14 03:19:00,
2013-01-13 22:29:00,74.6,65.0,30.12,East,98,7.0,7.0,72,0.00,,,0.00,Wunderground v.1.15,2013-01-14 03:29:00,
2013-01-13 22:39:00,74.5,64.9,30.13,East,96,7.0,11.0,72,0.00,,,0.00,Wunderground v.1.15,2013-01-14 03:39:00,
2013-01-13 22:49:00,74.5,64.9,30.13,SE,127,6.0,7.0,72,0.00,,,0.00,Wunderground v.1.15,2013-01-14 03:49:00,
2013-01-13 23:00:00,74.5,65.3,30.13,ENE,72,6.0,9.0,73,0.00,,,0.00,Wunderground v.1.15,2013-01-14 04:00:00,
2013-01-13 23:09:00,74.6,65.4,30.13,SE,127,5.0,5.0,73,0.00,,,0.00,Wunderground v.1.15,2013-01-14 04:09:00,
2013-01-13 23:19:00,74.6,65.8,30.13,SE,127,6.0,6.0,74,0.00,,,0.00,Wunderground v.1.15,2013-01-14 04:19:00,
2013-01-13 23:29:00,74.4,65.2,30.13,East,92,6.0,6.0,73,0.00,,,0.00,Wunderground v.1.15,2013-01-14 04:29:00,
2013-01-13 23:39:00,74.3,65.5,30.13,SSE,150,5.0,5.0,74,0.00,,,0.00,Wunderground v.1.15,2013-01-14 04:39:00,
2013-01-13 23:49:00,74.1,64.9,30.13,ENE,73,4.0,14.0,73,0.00,,,0.00,Wunderground v.1.15,2013-01-14 04:49:00,
2013-01-13 23:59:00,74.1,64.9,30.14,SSE,160,6.0,6.0,73,0.00,,,0.00,Wunderground v.1.15,2013-01-14 04:59:00,